Location: Wellington
(32.4815°N, 84.9052°W)
Time: 05:52:55
(UTC+00:00)

Daily predictions for brighter satellites

Satellite Brightness Start Highest point End
(mag) Time Altitude Azimuth Time Altitude Azimuth Time Altitude Azimuth
Okean 2 Rocket 3.1 00:01:15 10° S 00:05:33 55° E 00:08:00 24° NNE
RESURS DK-1 3.8 00:04:16 10° N 00:05:59 21° NNE 00:05:59 21° NNE
BREEZE M DEB (TANK) 3.1 00:06:22 10° SSW 00:09:18 34° SSE 00:09:18 34° SSE
Nadezhda 4 Rocket 4.1 00:06:12 10° N 00:12:17 51° E 00:18:16 10° SSE
CZ-2D R/B 3.4 00:08:41 10° S 00:12:44 81° W 00:16:53 10° NNW
ISS -1.0 00:11:37 10° NW 00:13:02 12° NNW 00:14:17 10° N
SJ 16-02 1.1 00:08:55 10° S 00:13:12 79° ESE 00:15:05 33° NNE
Spot 4 Rocket 3.9 00:09:47 10° SSE 00:14:52 83° ENE 00:19:59 10° N
ATLAS 2A CENTAUR R/B 3.6 00:01:26 10° WSW 00:15:03 42° S 00:17:16 28° SE
Helios 1A Rocket 4.2 00:18:20 10° N 00:21:22 32° WNW 00:24:24 10° SW
USA 215 3.8 00:16:36 10° SSE 00:23:00 58° SW 00:29:26 10° NW
ATLAS 5 CENTAUR R/B 2.2 00:21:10 10° NW 00:26:07 75° WSW 00:32:12 10° SSE
Cosmos 1833 Rocket 4.4 00:25:07 10° NW 00:30:07 33° WSW 00:35:05 10° SSW
Cosmos 371 Rocket 3.1 00:25:40 10° SSW 00:30:27 90° WNW 00:31:39 51° NNE
Cosmos 1656 Rocket 3.6 00:28:24 10° S 00:33:46 61° ESE 00:33:51 61° ESE
Cosmos 1428 Rocket 4.4 00:28:14 10° N 00:34:28 65° E 00:40:42 10° SSE
Cosmos 2058 3.2 00:31:30 10° NNW 00:35:25 62° W 00:39:20 10° S
Cosmos 304 Rocket 3.9 00:34:38 10° SSW 00:39:19 68° WNW 00:40:27 49° N
Intelsat 5-1 Rocket 4.5 00:34:55 10° SSW 00:39:38 29° SSE 00:40:40 28° SE
NOAA 6 3.9 00:34:56 10° SSE 00:40:04 89° WSW 00:45:15 10° NNW
Cosmos 1763 Rocket 4.2 00:39:12 10° NNW 00:44:14 52° WSW 00:49:10 10° S
Cosmos 540 Rocket 3.9 00:41:58 10° NNW 00:47:00 60° WSW 00:51:59 10° S
Cosmos 1400 Rocket 4.4 00:45:15 10° SW 00:48:42 32° WNW 00:49:28 29° NW
OAO 3 Rocket 3.7 00:45:42 10° W 00:49:21 50° NW 00:49:21 50° NW
Cosmos 2034 Rocket 4.4 00:52:35 10° SSW 00:58:38 59° W 01:04:46 10° N
Centaur AC-119 4.2 00:51:49 10° WSW 00:58:49 59° S 01:00:28 51° SE
Cosmos 2082 Rocket 3.8 01:25:33 10° NNW 01:28:05 27° NW 01:28:05 27° NW
CZ-3 R/B 4.5 06:44:15 10° SW 07:34:45 47° SE 07:44:49 10° E
Atlas 2A Centaur Rocket 4.5 09:18:27 23° SE 09:18:27 23° SE 09:19:47 10° ESE
Timation 2 Rocket 4.3 09:33:14 59° SE 09:33:14 59° SE 09:38:13 10° SSE
SL-16 R/B 3.8 09:29:43 10° SSE 09:32:30 29° S 09:32:30 29° S
SL-16 R/B 3.5 09:35:20 10° S 09:40:31 38° ESE 09:45:44 10° NE
Cosmos 1725 Rocket 4.3 09:42:39 10° N 09:48:56 66° E 09:55:09 10° SSE
Cosmos 1802 Rocket 3.8 10:06:58 24° NNW 10:10:55 72° W 10:17:03 10° S
UNK 3.8 10:07:04 10° S 10:10:52 62° S 10:10:52 62° S
Aureole 3 4.5 10:11:18 10° S 10:17:31 71° E 10:22:51 10° NNE
Cosmos 2237 Rocket 4.3 10:24:59 12° NNW 10:24:59 12° NNW 10:25:29 10° N
SJ 16-02 2.8 10:18:07 10° N 10:22:03 35° ENE 10:25:57 10° SE
Cosmos 2056 Rocket 3.5 10:21:55 35° SW 10:24:02 61° WNW 10:29:24 10° N
Cosmos 2278 Rocket 2.4 10:25:22 45° WSW 10:25:29 45° WSW 10:30:49 10° S
Cosmos 1943 Rocket 2.6 10:28:04 39° WSW 10:28:04 39° WSW 10:32:42 10° S
USA 229 DEB 3.2 10:23:41 15° SSW 10:28:27 82° WNW 10:34:43 10° NNE
USA 229 3.2 10:23:47 14° SSW 10:28:40 82° WNW 10:34:55 10° NNE
Cosmos 2016 Rocket 4.0 10:27:29 10° NNW 10:33:40 55° W 10:39:45 10° SSW
Cosmos 407 Rocket 3.7 10:33:47 41° W 10:33:54 41° WSW 10:38:40 10° S
Cosmos 1954 Rocket 4.4 10:29:08 10° N 10:34:15 61° ENE 10:39:19 10° SSE
Cosmos 2369 Rocket 4.3 10:32:42 10° N 10:37:15 24° ENE 10:41:49 10° ESE
USA-17 4.4 10:38:31 62° WNW 10:38:54 70° WSW 10:42:54 10° SSE
USA 267 4.1 10:34:03 10° NNE 10:39:26 28° NW 10:40:53 26° NW
Cosmos 1782 Rocket 3.7 10:42:02 37° NW 10:43:10 46° W 10:47:16 10° SSW
Cosmos 1371 Rocket 4.4 10:41:02 24° WSW 10:43:36 40° WNW 10:48:35 10° N
IRS-1D 3.3 10:39:13 10° N 10:44:09 78° WNW 10:49:03 10° SSW
Iridium 4 Rocket 3.4 10:47:39 35° W 10:47:39 35° W 10:51:27 10° SSW
Helios 1A Rocket 3.9 10:44:52 10° SE 10:47:59 36° ENE 10:51:06 10° N
ATLAS 3B R/B 2.9 10:42:03 10° SW 10:49:16 61° WNW 10:56:59 10° NNE
FengYun 1-2 T 4.4 10:45:24 10° N 10:50:47 51° WNW 10:56:12 10° SSW
Cosmos 1300 Rocket 4.2 10:51:06 31° W 10:51:10 31° W 10:54:56 10° SSW
Cosmos 1869 2.9 10:47:50 10° N 10:51:19 88° E 10:54:49 10° S
Cosmos 371 Rocket 3.5 10:46:50 10° NNW 10:51:40 70° ENE 10:56:27 10° SSE
Delta 142 3.9 10:53:06 25° WSW 10:55:11 48° S 10:59:09 10° ESE
Cosmos 1812 2.5 10:54:46 10° N 10:57:37 57° E 11:00:27 10° SSE
Chandra Rocket (1) 3.8 10:54:12 21° WSW 10:57:40 58° S 11:14:11 10° ESE
Meteor 1-21 Rocket 4.2 10:53:10 10° SSW 10:58:56 75° W 11:04:37 10° N
Cosmos 304 Rocket 3.7 10:54:29 10° NNW 10:59:17 89° E 11:04:02 10° SSE
CZ-4 R/B 3.8 10:54:43 10° N 10:59:26 58° WNW 11:04:01 10° SSW
Cosmos 1110 Rocket 3.9 10:54:20 10° SSW 10:59:35 82° WNW 11:04:54 10° NNE
CENTAUR R/B 4.5 10:51:28 10° NNW 10:59:35 41° NE 11:08:21 10° ESE
Cosmos 1378 Rocket 3.4 10:59:16 10° SSW 11:03:30 70° W 11:07:46 10° N
Cosmos 2242 Rocket 4.0 11:03:27 10° SSW 11:07:28 36° W 11:11:33 10° NNW
USA 234 3.9 11:05:05 10° ESE 11:11:22 51° NE 11:17:40 10° NNW
Cosmos 1818 4.3 11:06:08 10° S 11:11:23 56° ESE 11:16:41 10° NE
ATLAS CENTAUR Rocket 4.0 11:08:02 10° SW 11:11:38 30° SSE 11:18:25 10° E
NOAA 12 4.2 11:07:00 10° N 11:12:08 51° WNW 11:17:15 10° SSW
Cosmos 1656 Rocket 3.6 11:07:46 10° NNW 11:13:27 79° WSW 11:19:04 10° SSE
CZ-3 R/B 2.4 11:03:32 10° W 11:18:26 66° S 11:23:32 10° E
Cosmos 2251 Rocket 4.5 11:19:12 10° NW 11:23:39 27° W 11:28:04 10° SSW
SL-16 R/B 3.2 11:20:07 10° WSW 11:24:39 24° WNW 11:29:12 10° N
IUS-1 SRM-2 4.3 11:19:12 10° W 11:25:05 23° SW 11:27:42 10° SSE
Cosmos 1891 Rocket 4.5 11:19:51 10° NNW 11:26:03 65° W 11:32:06 10° S
IGS 5A 3.5 11:29:04 10° NNE 11:33:05 81° ESE 11:37:04 10° S
Cosmos 1452 Rocket 3.6 11:28:03 10° SSW 11:33:08 53° WNW 11:38:15 10° N
H-2A R/B 3.1 11:31:41 10° WSW 11:34:15 42° S 11:42:30 10° ESE
Aureole 3 Rocket 4.5 11:31:40 10° NNW 11:37:26 50° W 11:45:13 10° SSW
ARIANE 5 R/B 3.9 11:39:58 10° NNE 11:44:52 45° E 11:49:47 10° S
Cosmos 1850 Rocket 4.2 11:40:53 10° NNW 11:46:03 78° ENE 11:51:13 10° SSE
Cosmos 1464 Rocket 4.0 11:42:21 10° N 11:48:26 70° W 11:54:29 10° S
